Flag for India Weather past 2 weeks in Panipat, Haryana, India

Now
86 °F

Duststorm.


Feels Like: 85 °F
Forecast: 79 / 103 °F
Wind: 9 mph from East

Location: New Delhi Palam Airport

Current Time: Apr 26, 2015 at 12:54:07 PM

Latest Report: Apr 26, 2015 at 12:00 PM


Visibility: 2 mi

Pressure: 29.86 "Hg

Humidity: 40%

Dew point: 59 °F

Location of PanipatLocation

Historic Weather in Panipat — Graph

°F

Panipat temperature yesterday

Maximum temperature yesterday: 97 °F (at 1:00 PM)
Minimum temperature yesterday: 79 °F (at 4:00 AM)
Average temperature yesterday: 88 °F

Past Weeks' High & Low Weather Summary

 TemperatureHumidityPressure
High106 °F (Apr 19, 3:30 PM)94% (Apr 13, 5:30 AM)30.09 "Hg (Apr 13, 5:30 AM)
Low66 °F (Apr 13, 5:30 AM)10% (Apr 24, 2:00 PM)29.59 "Hg (Apr 18, 3:30 PM)
Average85 °F41%29.80 "Hg
* Reported Apr 11 12:00 Noon — Apr 26 11:30 AM, Panipat, Weather by CustomWeather, © 2015

Note: Actual official high and low records may vary slightly from our data, if they occured in-between our weather recording intervals... More about our weather records

Advertising

Panipat weather history for previous 24 hours

 ConditionsComfort  
Time TempWeatherWind HumidityBarometerVisibility
11:30 AM
Sun, Apr 26
86 °FDuststorm.9 mph35%29.89 "Hg2 mi
11:00 AM84 °FDuststorm.17 mph37%29.89 "Hg2 mi
10:30 AM82 °FDuststorm.9 mph40%29.89 "Hg2 mi
10:00 AM81 °FDuststorm.15 mph45%29.89 "Hg2 mi
9:30 AM79 °FDuststorm.14 mph48%29.89 "Hg2 mi
9:00 AM79 °FDuststorm.17 mph48%29.89 "Hg2 mi
8:30 AM77 °FDuststorm.12 mph51%29.89 "Hg2 mi
8:00 AM77 °FDuststorm.12 mph51%29.89 "Hg2 mi
7:30 AM75 °FDuststorm.12 mph54%29.89 "Hg2 mi
7:00 AM75 °FDuststorm.12 mph54%29.86 "Hg2 mi
6:30 AM75 °FPassing clouds.13 mph54%29.86 "Hg2 mi
6:00 AM75 °FPassing clouds.9 mph54%29.83 "Hg2 mi
5:30 AM75 °FPassing clouds.9 mph54%29.83 "Hg2 mi
4:30 AM77 °FPassing clouds.12 mph51%29.80 "Hg1 mi
4:00 AM77 °FPassing clouds.12 mph47%29.80 "Hg1 mi
3:30 AM79 °FPassing clouds.12 mph45%29.80 "Hg1 mi
2:30 AM79 °FPassing clouds.12 mph45%29.77 "Hg1 mi
2:00 AM81 °FPassing clouds.12 mph42%29.80 "Hg1 mi
1:30 AM81 °FPassing clouds.12 mph42%29.80 "Hg1 mi
1:00 AM81 °FPassing clouds.12 mph45%29.80 "Hg1 mi
12:30 AM82 °FPassing clouds.12 mph42%29.80 "Hg1 mi
12:00 AM82 °FPassing clouds.12 mph42%29.80 "Hg1 mi
11:30 PM
Sat, Apr 25
82 °FPassing clouds.12 mph42%29.80 "Hg1 mi
11:00 PM84 °FPassing clouds.12 mph43%29.80 "Hg1 mi
10:30 PM84 °FPassing clouds.12 mph43%29.77 "Hg1 mi
10:00 PM86 °FPassing clouds.12 mph40%29.77 "Hg1 mi
9:30 PM88 °FPassing clouds.12 mph38%29.77 "Hg1 mi
9:00 PM88 °FHaze.14 mph38%29.77 "Hg1 mi
8:30 PM90 °FHaze.15 mph36%29.74 "Hg1 mi
8:00 PM90 °FHaze.9 mph33%29.74 "Hg1 mi
7:30 PM91 °FHaze.9 mph34%29.68 "Hg1 mi
7:00 PM93 °FHaze.10 mph28%29.68 "Hg1 mi
6:30 PM93 °FHaze.9 mph30%29.68 "Hg1 mi
6:00 PM95 °FHaze.12 mph28%29.65 "Hg1 mi
5:30 PM97 °FHaze.9 mph27%29.65 "Hg1 mi
5:00 PM97 °FHaze.9 mph27%29.65 "Hg1 mi
4:30 PM97 °FHaze.9 mph27%29.65 "Hg1 mi
4:00 PM97 °FHaze.9 mph27%29.68 "Hg1 mi
3:30 PM97 °FHaze.9 mph25%29.68 "Hg1 mi
3:00 PM97 °FHaze.9 mph27%29.71 "Hg1 mi
2:30 PM97 °FDuststorm.9 mph25%29.71 "Hg1 mi
1:00 PM97 °FDuststorm.13 mph25%29.77 "Hg1 mi
12:30 PM95 °FDuststorm.12 mph26%29.77 "Hg1 mi
12:00 PM91 °FDuststorm.14 mph30%29.77 "Hg1 mi
Weather by CustomWeather, © 2015

See weather overviewHow to use our weather pages